Regional Weather Roundup
Issued by NWS Mt. Holly, NJ

Current Version | Previous Version | Text Only | Print | Product List | Glossary Off
Versions: 1 2 3 4 5 6 7 8 9 10 11 12 13 14 15 16 17 18 19 20 21 22 23 24 25 26 27 28 29 30 31 32 33 34 35 36 37 38 39 40 41 42 43 44 45 46 47 48 49 50

000
ASUS41 KPHI 280610
RWRPHI

REGIONAL WEATHER ROUNDUP
NATIONAL WEATHER SERVICE MOUNT HOLLY NJ
200 AM EDT MON JUL 28 2014

NOTE:  "FAIR" INDICATES FEW OR NO CLOUDS BELOW 12,000 FEET WITH NO
SIGNIFICANT WEATHER AND/OR OBSTRUCTIONS TO VISIBILITY.

 * = STATION DOES NOT REPORT PRECIPITATION (E.G. RAIN, SNOW, ETC.)
        OR FOG.

NJZ015>026-280700-
SOUTHERN NEW JERSEY

CITY           SKY/WX    TMP DP  RH WIND       PRES   REMARKS
POMONA         MOCLDY    75  71  87 S7        29.62F
6HR MIN TEMP:  75; 6HR MAX TEMP:  80;

RIO GRANDE*    CLOUDY    75  68  78 S13       29.65F
MILLVILLE      CLOUDY    77  72  84 VRB5      29.63F
WRIGHTSTOWN    TSTM      68  68 100 SW10G16   29.63R
MOUNT HOLLY    RAIN      68  66  93 VRB6      29.66R FOG
TRENTON        LGT RAIN  70  67  90 MISG      29.60S
6HR MIN TEMP:  70; 6HR MAX TEMP:  82; 6HR PCP:  0.36;


$$
NJZ001>014-280700-
NORTHERN NEW JERSEY

CITY           SKY/WX    TMP DP  RH WIND       PRES   REMARKS
SUSSEX         CLOUDY    71  67  87 SE3       29.58F
ANDOVER*         N/A     66  65  96 CALM      29.58F
MORRISTOWN     RAIN      68  64  88 CALM      29.58F
NEWARK         TSTM      74  72  93 SE3       29.60F
TETERBORO      TSTM      76  71  85 S5        29.59F
CALDWELL       LGT RAIN  67  64  90 CALM      29.59F
SOMERVILLE     CLOUDY    72  70  93 CALM      29.56F
ALLAIRE*       CLOUDY    75  70  83 E6        29.61F
TOMS RIVER*    CLOUDY    75  72  88 S7        29.62F

$$
PAZ043-044-047-054-055-060>062-066>071-280700-
EASTERN PENNSYLVANIA

CITY           SKY/WX    TMP DP  RH WIND       PRES   REMARKS
PHILADELPHIA   TSTM      71  68  90 S8        29.62F
6HR MIN TEMP:  70; 6HR MAX TEMP:  83; 6HR PCP:  1.43;

NORTH PHILA    LGT RAIN  71  66  84 VRB6      29.64S
BLUE BELL      CLOUDY    70  68  94 S7        29.60F
DOYLESTOWN     LGT RAIN  67  67 100 S5        29.61S
QUAKERTOWN*    CLOUDY    66  66 100 S3        29.61F
POTTSTOWN      RAIN      68  67  96 VRB3      29.60F FOG
LANCASTER      CLOUDY    66  65  96 CALM      29.58F
COATESVILLE    LGT RAIN  66  66 100 CALM      29.61F
READING        CLOUDY    69  66  90 S3        29.57F
6HR MIN TEMP:  68; 6HR MAX TEMP:  72; 6HR PCP:  0.43;

ALLENTOWN      CLOUDY    68  64  87 E6        29.59F
6HR MIN TEMP:  67; 6HR MAX TEMP:  84; 6HR PCP:  0.47;

MOUNT POCONO   MOCLDY    63  59  87 SE9       29.63F
6HR MIN TEMP:  63; 6HR MAX TEMP:  76; 6HR PCP:  0.04;

HAZLETON       CLOUDY    64  63  94 CALM      29.64F
WILKES BARRE   MOCLDY    68  59  73 CALM      29.59F

$$
DEZALL-MDZ008-012-015-019-020-280700-
DELAWARE AND EASTERN MARYLAND

CITY           SKY/WX    TMP DP  RH WIND       PRES   REMARKS
WILMINGTON     LGT RAIN  69  66  90 SW5       29.64S
6HR MIN TEMP:  69; 6HR MAX TEMP:  82; 6HR PCP:  1.94;

DOVER          MOCLDY    75  73  94 S8        29.59F
GEORGETOWN     MOCLDY    75  71  87 S14       29.63F
6HR MIN TEMP:  75; 6HR MAX TEMP:  79;

EASTON         MOCLDY    79  75  89 S6        29.64F
PATUXENT       PTCLDY    79  71  76 SW17G24   29.60F
OCEAN CITY     CLEAR     76  73  91 VRB6      29.63F
WALLOPS ISLAND CLEAR     77  73  87 SW12      29.64F
CAMBRIDGE      MOCLDY    79  72  78 S3        29.59F

$$
PAZ001-021-NYZ056-072-MDZ011-DCZ001-280700-
OTHER NEARBY LOCATIONS

CITY           SKY/WX    TMP DP  RH WIND       PRES   REMARKS
HARRISBURG     MOCLDY    67  65  93 CALM      29.58F
STATE COLLEGE  RAIN      63  62  95 CALM      29.64S
WILLIAMSPORT   MOCLDY    66  63  90 W6        29.58F
BINGHAMTON     MOCLDY    65  62  90 NE6       29.63F
NEW YORK CITY  RAIN      75  72  90 VRB3      29.64F FOG
BALTIMORE      CLOUDY    71  68  90 CALM      29.60F
WASHINGTON DC  CLOUDY    79  72  79 NW5       29.61S

$$


USA.gov is the U.S. government's official web portal to all federal, state and local government web resources and services.